Simultaneous Nadir Overpasses (SNOs) Predictions

Prediction of SNOs between AQUA and GOES-15 Satellite Orbit:

Table of predicted SNOs for the next 14.0 days since TLE Epoch: 3/4/2023
Index Date Time (AQUA) AQUA Lat,Lon GOES-15 Lat,Lon Distance(km) Time Diff (sec)
1 03/04/2023 10:26:43 0.60,-130.23 0.12,-127.93 260.60 80
2 03/06/2023 10:13:15 -0.08,-126.94 0.12,-127.88 107.05 80
3 03/06/2023 22:34:19 -1.04,-132.04 -0.12,-127.88 473.38 80
4 03/08/2023 09:59:46 -0.76,-123.65 0.12,-127.83 474.91 80
5 03/08/2023 22:20:50 -0.35,-128.75 -0.12,-127.83 105.61 80
6 03/10/2023 22:07:20 0.35,-125.46 -0.13,-127.77 262.21 80
7 03/11/2023 10:28:15 0.71,-130.53 0.13,-127.74 317.55 80
8 03/13/2023 10:14:43 0.05,-127.22 0.13,-127.67 49.89 80
9 03/15/2023 10:01:11 -0.67,-123.93 0.14,-127.59 416.86 80
10 03/15/2023 22:22:14 -0.43,-129.03 -0.14,-127.59 163.52 80
11 03/17/2023 22:08:40 0.25,-125.72 -0.14,-127.50 203.31 80
